Volver al catálogo

SL-8 R/B

ActivoLEO
NORAD 4784·ROCKET BODY·🇷🇺 Russia

Lanzado Dec 2, 1970 desde Plesetsk Cosmodrome

Loading…

Próximos Pases (próximas 24 horas)

TLE

ActualizadoSource: Space-Track

Época: Sep 14, 2026, 15:37 UTC

1 04784U 70102B   26257.65108119  .00000066  00000-0  89610-4 0  9996
2 04784  74.0283 124.5463 0025493 119.6815 252.4809 13.77013160801488

Sigue SL-8 R/B en tiempo real con AllMySat

Download on the App Store